CAMANCHE RESERVOIR (CMN)

Elevation: 236' · MOKELUMNE R basin · Operator: East Bay Municipal Utility District

Provisional data, subject to change.
Query executed Wednesday at 17:55:07   clock

Select a sensor type for a plot of data.
Note: Reservoir Flows are daily averages.

Earlier

Date RES ELE    STORAGE    RES CHG    TOC STO    OUTFLOW    INFLOW   
 FEET   AF   AF   AF   CFS   CFS  
03/17/2014 200.58 196110 -579 324700 205 11
03/18/2014 200.53 195860 -273 326500 205 11
03/19/2014 200.44 195400 -457 328300 205 11
03/20/2014 200.37 195040 -350 330200 208 11
03/21/2014 200.27 194540 -522 332000 208 11
03/22/2014 200.21 194240 -- 333900 208 11
03/23/2014 200.12 193780 -- 335800 208 11
03/24/2014 200.04 193380 -395 337600 210 11
03/25/2014 199.94 192870 -541 339500 210 11
03/26/2014 199.87 192520 -336 341200 208 11
03/27/2014 199.80 192170 -340 342800 207 11
03/28/2014 199.71 191720 -478 344400 205 11
03/29/2014 199.75 191920 -- 345800 204 11
03/30/2014 199.67 191520 -- 347200 205 11
03/31/2014 199.57 191020 -- 348800 226 11
04/01/2014 199.52 190770 -212 350400 259 11
04/02/2014 199.40 190170 -597 351500 256 11
04/03/2014 199.29 189620 -546 352900 255 11
04/04/2014 199.20 189170 -423 354400 256 11
04/05/2014 199.12 188780 -- 356000 255 11
04/06/2014 198.99 188130 -- 357500 257 11
04/07/2014 198.92 187780 -347 358800 256 11
04/08/2014 198.79 187140 -640 360100 256 11
04/09/2014 198.72 186800 -342 361400 255 11
04/10/2014 198.63 186350 -470 362700 256 11
04/11/2014 198.49 185660 -669 364200 255 11
04/12/2014 198.41 185270 -- 364300 256 11
04/13/2014 198.27 184580 -- 365100 274 11
04/14/2014 198.16 184050 -543 366200 316 11
04/15/2014 198.04 183460 -572 367200 324 11
04/16/2014 -- -- -- -- -- --

Later | Latest

Warning! This data is preliminary and subject to revision.

Download Data Now Download Data Now | Show CMN Map | Plot CMN Data | 1 Month CMN Data | Real-Time CMN Data | CMN Info